Date,TemperatureHighF,TemperatureAvgF,TemperatureLowF,DewpointHighF,DewpointAvgF,DewpointLowF,HumidityHigh,HumidityAvg,HumidityLow,PressureMaxIn,PressureMinIn,WindSpeedMaxMPH,WindSpeedAvgMPH,GustSpeedMaxMPH,PrecipitationSumIn
2013-12-1,84.1,77.1,69.9,70.2,13.2,-99.9,89,72,57,29.99,29.85,16,4,14,0.00
2013-12-2,77.5,72.2,64.9,70.7,21.1,-99.9,93,86,74,29.99,29.89,11,2,0,0.20
2013-12-3,80.3,71.3,63.1,67.7,62.8,55.2,89,75,57,29.99,29.86,12,2,0,0.00
2013-12-4,81.0,71.2,62.4,66.5,59.3,50.4,80,67,49,29.99,29.86,16,3,16,0.00
2013-12-5,80.0,70.6,61.9,67.7,61.8,55.2,84,74,59,30.02,29.90,13,2,13,0.00
2013-12-6,79.7,71.2,62.1,65.8,61.2,53.8,86,71,57,30.04,29.89,13,2,13,0.00
2013-12-7,79.2,71.7,62.8,67.6,62.7,54.4,84,74,58,29.99,29.90,12,2,12,0.00
2013-12-8,83.8,74.0,67.4,69.7,64.5,58.1,84,73,56,30.05,29.92,9,1,0,0.00
2013-12-9,80.0,73.6,66.5,72.2,66.6,58.3,87,79,65,30.08,29.96,15,2,15,0.00
2013-12-10,84.7,73.8,67.2,69.3,63.0,55.7,82,70,42,30.03,29.90,29,5,29,0.00
2013-12-11,79.5,71.4,65.0,70.4,61.8,55.9,80,72,60,30.03,29.92,14,3,14,0.00
2013-12-12,78.7,71.7,64.1,67.5,63.1,53.9,86,75,61,30.08,29.92,13,2,0,0.00
2013-12-13,79.8,71.8,64.7,69.2,64.0,56.6,89,77,55,30.06,29.94,14,2,14,0.00
2013-12-14,78.2,70.8,64.6,67.9,62.9,55.5,84,76,66,30.01,29.89,9,3,15,0.00
2013-12-15,77.7,70.7,61.0,67.4,61.2,52.8,84,72,55,29.99,29.85,13,2,13,0.00
2013-12-16,78.5,71.1,63.2,68.5,62.9,58.1,86,76,61,30.00,29.88,13,2,14,0.00
2013-12-17,81.5,71.3,61.4,64.2,58.9,49.8,80,66,35,30.05,29.91,14,4,14,0.00
2013-12-18,79.9,69.9,61.4,63.9,57.2,46.3,82,65,47,30.06,29.93,18,2,18,0.00
2013-12-19,80.0,69.9,60.9,66.0,59.8,52.7,85,71,49,30.06,29.94,12,2,0,0.00
2013-12-20,79.3,70.9,62.0,68.4,62.2,55.1,85,75,55,30.05,29.94,12,2,0,0.00
2013-12-21,78.8,71.7,65.2,67.9,63.1,56.4,90,75,63,30.01,29.92,14,3,14,0.00
2013-12-22,79.4,71.0,61.7,66.8,61.4,55.8,86,72,57,30.02,29.89,13,2,13,0.00
2013-12-23,82.2,72.4,64.3,66.2,61.8,56.5,82,70,51,30.03,29.90,17,4,22,0.00
2013-12-24,80.8,73.3,67.1,65.7,62.1,58.9,82,69,48,30.04,29.92,24,6,24,0.00
2013-12-25,81.8,72.8,64.3,66.3,62.5,52.8,81,70,53,30.04,29.90,19,5,19,0.00
2013-12-26,80.0,72.8,68.0,63.6,61.6,57.6,79,68,53,29.98,29.79,33,8,33,0.00
2013-12-27,81.3,72.9,67.0,66.5,62.8,53.7,80,71,49,29.94,29.79,28,7,28,0.00
2013-12-28,79.9,72.8,68.1,68.6,65.6,61.8,89,79,65,29.94,29.85,10,3,17,0.00
2013-12-29,79.9,71.5,67.3,71.3,66.7,62.6,93,85,71,29.99,29.83,16,3,18,0.12
2013-12-30,80.1,72.0,67.6,69.5,65.7,60.0,91,81,67,29.96,29.89,15,4,21,0.04
2013-12-31,78.3,71.6,66.8,70.2,66.3,61.9,93,84,70,30.00,29.91,18,3,18,0.05